Weather History for Birmingham, United Kingdom

Change the Weather History Date:

Thursday, December 27, 2012

  Actual Average Record
Temperature  
Mean Temperature 42 °F -  
Max Temperature 44 °F 43 °F 51 °F (2002)
Min Temperature 39 °F 33 °F 21 °F (2004)
Degree Days  
Heating Degree Days 24    
Moisture  
Dew Point 39 °F    
Average Humidity 89    
Maximum Humidity 100    
Minimum Humidity 81    
Precipitation  
Precipitation 0.00 in 0.08 in - ()
Sea Level Pressure  
Sea Level Pressure 29.67 in    
Wind  
Wind Speed 7 mph ()    
Max Wind Speed 14 mph    
Max Gust Speed -    
Visibility 5.9 miles    
Events Rain    
Averages and records for this station are not official NWS values.
T = Trace of Precipitation, MM = Missing Value Source: Averaged Metar Reports

Daily Weather History Graph

Daily Weather History Graph

Search for Another Location

Airport:

Trip Planner

Search our weather history database for the weather conditions in past years. The results will help you decide how hot, cold, wet, or windy it might be!

Date:

Astronomy

Dec. 27, 2012 Rise Set
Actual Time 8:17 AM GMT 3:59 PM GMT
Civil Twilight 7:35 AM GMT 4:40 PM GMT
Nautical Twilight 6:51 AM GMT 5:24 PM GMT
Astronomical Twilight 6:10 AM GMT 6:06 PM GMT
Moon 3:34 PM GMT (12/27) 7:13 AM GMT (12/27)
Length of Visible Light 9h 04m
Length of Day
7h 41m
Waxing Gibbous, 99% of the Moon is Illuminated
Dec 27
Waxing Gibbous
Dec 28
Full
Jan 5
Last Quarter
Jan 11
New
Jan 18
First Quarter

Hourly Weather History & Observations

Time (GMT) Temp. Windchill Dew Point Humidity Pressure Visibility Wind Dir Wind Speed Gust Speed Precip Events Conditions
12:20 AM 42.8 °F 38.6 °F 37.4 °F 81% 29.50 in 6.2 mi SW 6.9 mph - N/A   Partly Cloudy
12:50 AM 42.8 °F 38.0 °F 37.4 °F 81% 29.50 in 6.2 mi SW 8.1 mph - N/A   Partly Cloudy
1:20 AM 42.8 °F 38.6 °F 37.4 °F 81% 29.50 in 6.2 mi SW 6.9 mph - N/A   Partly Cloudy
1:50 AM 42.8 °F 38.6 °F 37.4 °F 81% 29.50 in 6.2 mi SW 6.9 mph - N/A   Partly Cloudy
2:20 AM 42.8 °F 39.3 °F 37.4 °F 81% 29.50 in 6.2 mi WSW 5.8 mph - N/A   Unknown
2:50 AM 42.8 °F 39.3 °F 37.4 °F 81% 29.50 in 6.2 mi SW 5.8 mph - N/A   Unknown
3:20 AM 41.0 °F 36.4 °F 37.4 °F 87% 29.47 in - SW 6.9 mph - N/A   Clear
3:50 AM 41.0 °F 36.4 °F 37.4 °F 87% 29.47 in - SSW 6.9 mph - N/A   Clear
4:20 AM 41.0 °F 36.4 °F 37.4 °F 87% 29.47 in - SSW 6.9 mph - N/A   Clear
4:50 AM 41.0 °F 35.8 °F 37.4 °F 87% 29.44 in 6.2 mi SW 8.1 mph - N/A   Scattered Clouds
5:20 AM 42.8 °F 37.5 °F 37.4 °F 81% 29.44 in 6.2 mi SW 9.2 mph - N/A   Scattered Clouds
5:50 AM 41.0 °F 35.8 °F 37.4 °F 87% 29.44 in 6.2 mi SSW 8.1 mph - N/A   Scattered Clouds
6:20 AM 41.0 °F 37.1 °F 39.2 °F 93% 29.42 in 6.2 mi South 5.8 mph - N/A   Partly Cloudy
6:50 AM 41.0 °F 37.1 °F 39.2 °F 93% 29.42 in 6.2 mi South 5.8 mph - N/A   Scattered Clouds
7:20 AM 41.0 °F 36.4 °F 39.2 °F 93% 29.39 in 5.6 mi SSE 6.9 mph - N/A Rain Light Rain
7:50 AM 41.0 °F 36.4 °F 41.0 °F 100% 29.39 in 3.1 mi SE 6.9 mph - N/A Rain Rain
8:20 AM 41.0 °F 36.4 °F 41.0 °F 100% 29.39 in 3.7 mi SE 6.9 mph - N/A Rain Light Rain
8:50 AM 42.8 °F 40.1 °F 41.0 °F 93% 29.39 in 4.3 mi ESE 4.6 mph - N/A Rain Light Rain
9:20 AM 42.8 °F - 41.0 °F 93% 29.39 in 4.3 mi Variable 2.3 mph - N/A Rain Light Rain
9:50 AM 42.8 °F 35.8 °F 41.0 °F 93% 29.42 in 4.3 mi NNW 13.8 mph - N/A Rain Light Rain
10:20 AM 41.0 °F 33.5 °F 39.2 °F 93% 29.47 in 6.2 mi NNW 13.8 mph - N/A Rain Light Rain
10:50 AM 41.0 °F 35.8 °F 39.2 °F 93% 29.50 in 6.2 mi NW 8.1 mph - N/A Rain Light Rain
11:50 AM 41.0 °F 36.4 °F 39.2 °F 93% 29.53 in 6.2 mi WNW 6.9 mph - N/A   Mostly Cloudy
12:20 PM 42.8 °F 38.0 °F 39.2 °F 87% 29.56 in 6.2 mi WNW 8.1 mph - N/A   Partly Cloudy
12:50 PM 44.6 °F 38.4 °F 39.2 °F 81% 29.59 in 6.2 mi WNW 12.7 mph - N/A   Scattered Clouds
1:20 PM 44.6 °F 39.7 °F 39.2 °F 81% 29.62 in 6.2 mi WNW 9.2 mph - N/A   Scattered Clouds
1:50 PM 44.6 °F 39.7 °F 39.2 °F 81% 29.65 in 6.2 mi WNW 9.2 mph - N/A   Light Drizzle
2:20 PM 44.6 °F 39.7 °F 39.2 °F 81% 29.68 in 5.6 mi WNW 9.2 mph - N/A Rain Light Rain Showers
2:50 PM 42.8 °F 37.0 °F 41.0 °F 93% 29.71 in 5.0 mi WNW 10.4 mph - N/A Rain Light Rain Showers
3:20 PM 42.8 °F 37.0 °F 41.0 °F 93% 29.74 in 6.2 mi WNW 10.4 mph - N/A   Mostly Cloudy
3:50 PM 42.8 °F 35.8 °F 39.2 °F 87% 29.77 in 6.2 mi NW 13.8 mph - N/A   Mostly Cloudy
4:20 PM 42.8 °F 35.8 °F 39.2 °F 87% 29.80 in 6.2 mi NW 13.8 mph - N/A   Mostly Cloudy
4:50 PM 42.8 °F 36.6 °F 41.0 °F 93% 29.83 in 6.2 mi NW 11.5 mph - N/A   Scattered Clouds
5:20 PM 42.8 °F 36.6 °F 39.2 °F 87% 29.86 in 6.2 mi NW 11.5 mph - N/A   Scattered Clouds
5:50 PM 42.8 °F 36.6 °F 39.2 °F 87% 29.89 in 6.2 mi NW 11.5 mph - N/A   Mostly Cloudy
6:20 PM 41.0 °F 35.8 °F 39.2 °F 93% 29.92 in 6.2 mi NW 8.1 mph - N/A   Mostly Cloudy
6:50 PM 42.8 °F 38.0 °F 39.2 °F 87% 29.95 in 6.2 mi NW 8.1 mph - N/A   Mostly Cloudy
7:20 PM 41.0 °F 38.0 °F 39.2 °F 93% 29.98 in 6.2 mi WNW 4.6 mph - N/A   Mostly Cloudy
7:50 PM 41.0 °F 38.0 °F 39.2 °F 93% 30.01 in 6.2 mi WNW 4.6 mph - N/A   Mostly Cloudy
8:20 PM 41.0 °F 39.0 °F 39.2 °F 93% 30.01 in 6.2 mi Variable 3.5 mph - N/A   Mostly Cloudy
8:50 PM 41.0 °F 38.0 °F 39.2 °F 93% 30.04 in 6.2 mi WNW 4.6 mph - N/A   Overcast
9:20 PM 41.0 °F - 39.2 °F 93% 30.04 in 6.2 mi West 2.3 mph - N/A   Overcast
9:50 PM 41.0 °F - 39.2 °F 93% 30.06 in 6.2 mi Calm Calm - N/A   Mostly Cloudy
10:20 PM 39.2 °F 37.0 °F 37.4 °F 93% 30.06 in 6.2 mi Variable 3.5 mph - N/A   Scattered Clouds
10:50 PM 41.0 °F 39.0 °F 39.2 °F 93% 30.06 in 5.6 mi South 3.5 mph - N/A   Mostly Cloudy
11:20 PM 39.2 °F 37.0 °F 39.2 °F 100% 30.06 in - South 3.5 mph - N/A   Clear
11:50 PM 39.2 °F 35.9 °F 37.4 °F 93% 30.09 in - South 4.6 mph - N/A   Clear